Estación de Trinidad

Ultimos registro cada 15 minutos 42
Estación Fecha / Hora Temperatura Humedad Lluvia Velocidad Dirección Radiación Presion
42 Trinidad 04-05-2026 10:15 11,8 85 0 0 339 142 1018,8
41 Trinidad 04-05-2026 10:00 11,3 87 0 0 339 142 1018,7
40 Trinidad 04-05-2026 09:45 10,9 89 0 0 339 105 1018,6
39 Trinidad 04-05-2026 09:30 10,7 91 0 0 339 134 1018,5
38 Trinidad 04-05-2026 09:15 10,3 93 0 0 339 141 1018,6
37 Trinidad 04-05-2026 09:00 9,8 93 0 0 339 93 1018,7
36 Trinidad 04-05-2026 08:45 9,3 93 0 0 339 77 1018,5
35 Trinidad 04-05-2026 08:30 8,8 93 0 0 339 93 1018,3
34 Trinidad 04-05-2026 08:15 8,5 93 0 0 339 51 1018,3
33 Trinidad 04-05-2026 08:00 8,3 93 0 0 339 40 1018,3
32 Trinidad 04-05-2026 07:45 8 92 0 0 339 23 1018
31 Trinidad 04-05-2026 07:30 7,8 92 0 0 339 5 1017,8
30 Trinidad 04-05-2026 07:15 7,4 92 0 0 339 0 1017,9
29 Trinidad 04-05-2026 07:00 7,3 91 0 0 339 0 1017,7
28 Trinidad 04-05-2026 06:45 7,4 90 0 0 339 0 1017,6
27 Trinidad 04-05-2026 06:30 7,8 90 0 0 339 0 1017,8
26 Trinidad 04-05-2026 06:15 8,1 90 0 0 339 0 1017,8
25 Trinidad 04-05-2026 06:00 8,4 90 0 0 339 0 1017,6
24 Trinidad 04-05-2026 05:45 8,6 90 0 0 339 0 1017,6
23 Trinidad 04-05-2026 05:30 8,7 90 0 0 339 0 1017,4
22 Trinidad 04-05-2026 05:15 8,8 89 0 0 339 0 1017,4
21 Trinidad 04-05-2026 05:00 9,3 90 0 0 339 0 1017,6
20 Trinidad 04-05-2026 04:45 9,6 89 0 0 339 0 1017,6
19 Trinidad 04-05-2026 04:30 10 88 0 0 339 0 1017,5
18 Trinidad 04-05-2026 04:15 10,3 88 0 0 339 0 1017,7
17 Trinidad 04-05-2026 04:00 10,4 88 0 0 339 0 1017,6
16 Trinidad 04-05-2026 03:45 10,4 88 0 0 339 0 1017,5
15 Trinidad 04-05-2026 03:30 10,7 88 0 0,4 339 0 1017,7
14 Trinidad 04-05-2026 03:15 10,6 89 0 0 3 0 1017,9
13 Trinidad 04-05-2026 03:00 10,3 89 0 0 331 0 1018
12 Trinidad 04-05-2026 02:45 10,5 88 0 0 331 0 1018,1
11 Trinidad 04-05-2026 02:30 10,6 88 0 0 331 0 1018,3
10 Trinidad 04-05-2026 02:15 10,8 87 0 0 331 0 1018,3
9 Trinidad 04-05-2026 02:00 11,1 86 0 0 331 0 1018,6
8 Trinidad 04-05-2026 01:45 11,2 87 0 0 332 0 1018,5
7 Trinidad 04-05-2026 01:30 11,1 87 0 0 331 0 1018,7
6 Trinidad 04-05-2026 01:15 11,2 87 0 0 331 0 1018,7
5 Trinidad 04-05-2026 01:00 11,2 87 0 0 331 0 1018,5
4 Trinidad 04-05-2026 00:45 11,4 85 0 0 331 0 1018,7
3 Trinidad 04-05-2026 00:30 11,7 84 0 0 331 0 1019,1
2 Trinidad 04-05-2026 00:15 11,8 82 0 0 331 0 1019,1
1 Trinidad 04-05-2026 00:00 11,9 84 0 2,2 322 0 1019,1